This demonstration page uses our WeatherBlox Daily Observations layout. Learn more.

Left ArrowRight Arrow

40.60843, -75.49018

Hourly Observations for December 1, 2022

Temp ( °F °C ) Dew Point ( °F °C ) Humidity (%) Winds ( mph kmh ) Pressure ( in mb ) Visibility ( mi km ) Precip ( " mm )
12:15 am 00:15 Partly Cloudy 36 2 18 -8 47 47 WNW 13 20 30.04 1017 10 16 0.00 0.00
12:35 am 00:35 Partly Cloudy 36 2 18 -8 47 47 W 9 15 30.04 1017 10 16 0.00 0.00
12:55 am 00:55 Partly Cloudy 34 1 19 -7 55 55 W 9 15 30.03 1017 10 16 0.00 0.00
1:15 am 01:15 Mostly Cloudy 34 1 19 -7 55 55 W 8 13 30.04 1017 10 16 0.00 0.00
1:35 am 01:35 Mostly Cloudy 34 1 19 -7 55 55 W 9 15 30.05 1018 10 16 0.00 0.00
1:55 am 01:55 Mostly Cloudy 34 1 19 -7 55 55 W 7 11 30.05 1018 10 16 0.00 0.00
2:15 am 02:15 Partly Cloudy 36 2 19 -7 51 51 W 14 22 30.06 1018 10 16 0.00 0.00
2:35 am 02:35 Partly Cloudy 36 2 19 -7 51 51 W 12 19 30.08 1019 10 16 0.00 0.00
2:55 am 02:55 Cloudy 36 2 19 -7 51 51 W 10 17 30.07 1018 10 16 0.00 0.00
3:15 am 03:15 Mostly Cloudy 36 2 19 -7 51 51 W 12 19 30.08 1019 10 16 0.00 0.00
3:35 am 03:35 Mostly Cloudy 36 2 19 -7 51 51 W 15 24 30.09 1019 10 16 0.00 0.00
3:55 am 03:55 Mostly Cloudy 36 2 19 -7 51 51 W 16 26 30.10 1019 10 16 0.00 0.00
4:15 am 04:15 Partly Cloudy 34 1 19 -7 55 55 W 16 26 30.12 1020 10 16 0.00 0.00
4:35 am 04:35 Clear 36 2 18 -8 47 47 W 13 20 30.14 1021 10 16 0.00 0.00
4:55 am 04:55 Clear 34 1 16 -9 47 47 WSW 14 22 30.13 1020 10 16 0.00 0.00
5:15 am 05:15 Clear 34 1 18 -8 51 51 W 18 30 30.16 1021 10 16 0.00 0.00
5:35 am 05:35 Clear 34 1 18 -8 51 51 W 14 22 30.17 1022 10 16 0.00 0.00
5:55 am 05:55 Clear 34 1 18 -8 51 51 W 14 22 30.18 1022 10 16 0.00 0.00
6:15 am 06:15 Clear 34 1 18 -8 51 51 W 15 24 30.19 1022 10 16 0.00 0.00
6:35 am 06:35 Clear 34 1 18 -8 51 51 W 13 20 30.20 1023 10 16 0.00 0.00
6:55 am 06:55 Clear 34 1 18 -8 51 51 W 14 22 30.22 1023 10 16 0.00 0.00
7:15 am 07:15 Sunny 34 1 18 -8 51 51 W 15 24 30.23 1024 10 16 0.00 0.00
7:35 am 07:35 Sunny 34 1 18 -8 51 51 W 13 20 30.24 1024 10 16 0.00 0.00
7:55 am 07:55 Sunny 34 1 18 -8 51 51 W 15 24 30.26 1025 10 16 0.00 0.00
8:15 am 08:15 Sunny 34 1 18 -8 51 51 W 18 30 30.26 1025 10 16 0.00 0.00
8:35 am 08:35 Sunny 34 1 18 -8 51 51 W 16 26 30.28 1025 10 16 0.00 0.00
8:55 am 08:55 Sunny 34 1 18 -8 51 51 W 14 22 30.29 1026 10 16 0.00 0.00
9:15 am 09:15 Partly Cloudy 36 2 19 -7 51 51 W 15 24 30.30 1026 10 16 0.00 0.00
9:35 am 09:35 Mostly Cloudy 37 3 19 -7 48 48 W 14 22 30.31 1026 10 16 0.00 0.00
9:55 am 09:55 Cloudy 37 3 19 -7 48 48 WNW 12 19 30.33 1027 10 16 0.00 0.00
10:15 am 10:15 Cloudy 36 2 19 -7 51 51 W 21 33 30.34 1027 10 16 0.00 0.00
10:35 am 10:35 Cloudy 36 2 19 -7 51 51 W 13 20 30.34 1027 10 16 0.00 0.00
10:55 am 10:55 Cloudy 36 2 19 -7 51 51 WNW 14 22 30.35 1028 10 16 0.00 0.00
11:15 am 11:15 Cloudy 36 2 19 -7 51 51 WNW 12 19 30.35 1028 10 16 0.00 0.00
11:35 am 11:35 Cloudy 37 3 19 -7 48 48 W 14 22 30.34 1027 10 16 0.00 0.00
11:55 am 11:55 Cloudy 37 3 21 -6 52 52 W 13 20 30.35 1028 10 16 0.00 0.00
12:15 pm 12:15 Cloudy 39 4 21 -6 48 48 WNW 14 22 30.35 1028 10 16 0.00 0.00
12:35 pm 12:35 Mostly Cloudy 39 4 21 -6 48 48 WNW 16 26 30.35 1028 10 16 0.00 0.00
12:55 pm 12:55 Cloudy 41 5 21 -6 45 45 W 20 31 30.35 1028 10 16 0.00 0.00
1:15 pm 13:15 Partly Cloudy 41 5 21 -6 45 45 W 10 17 30.35 1028 10 16 0.00 0.00
1:35 pm 13:35 Partly Cloudy 41 5 21 -6 45 45 W 12 19 30.35 1028 10 16 0.00 0.00
1:55 pm 13:55 Mostly Cloudy 39 4 21 -6 48 48 W 15 24 30.37 1028 10 16 0.00 0.00
2:15 pm 14:15 Mostly Cloudy 41 5 21 -6 45 45 W 16 26 30.37 1028 10 16 0.00 0.00
2:35 pm 14:35 Partly Cloudy 41 5 21 -6 45 45 W 16 26 30.37 1028 10 16 0.00 0.00
2:55 pm 14:55 Sunny 41 5 21 -6 45 45 W 13 20 30.38 1029 10 16 0.00 0.00
3:15 pm 15:15 Sunny 39 4 21 -6 48 48 W 14 22 30.40 1029 10 16 0.00 0.00
3:35 pm 15:35 Sunny 39 4 21 -6 48 48 WNW 9 15 30.40 1029 10 16 0.00 0.00
3:55 pm 15:55 Sunny 37 3 21 -6 52 52 W 9 15 30.42 1030 10 16 0.00 0.00
4:15 pm 16:15 Sunny 37 3 21 -6 52 52 WNW 14 22 30.43 1030 10 16 0.00 0.00
4:35 pm 16:35 Sunny 37 3 21 -6 52 52 WNW 6 9 30.44 1031 10 16 0.00 0.00
4:55 pm 16:55 Clear 36 2 21 -6 55 55 W 7 11 30.44 1031 10 16 0.00 0.00
5:15 pm 17:15 Clear 36 2 21 -6 55 55 W 7 11 30.46 1031 10 16 0.00 0.00
5:35 pm 17:35 Clear 36 2 21 -6 55 55 WSW 8 13 30.48 1032 10 16 0.00 0.00
5:55 pm 17:55 Clear 36 2 21 -6 55 55 W 9 15 30.48 1032 10 16 0.00 0.00
6:15 pm 18:15 Clear 36 2 21 -6 55 55 W 5 7 30.48 1032 10 16 0.00 0.00
6:35 pm 18:35 Clear 34 1 21 -6 59 59 W 3 6 30.48 1032 10 16 0.00 0.00
6:55 pm 18:55 Clear 34 1 21 -6 59 59 WSW 5 7 30.48 1032 10 16 0.00 0.00
7:15 pm 19:15 Clear 32 0 21 -6 64 64 W 7 11 30.48 1032 10 16 0.00 0.00
7:35 pm 19:35 Clear 32 0 21 -6 64 64 SSW 3 6 30.49 1033 10 16 0.00 0.00
7:55 pm 19:55 Clear 32 0 21 -6 64 64 WSW 6 9 30.49 1033 10 16 0.00 0.00
8:15 pm 20:15 Clear 32 0 21 -6 64 64 WNW 3 6 30.49 1033 10 16 0.00 0.00
8:35 pm 20:35 Clear 32 0 21 -6 64 64 W 3 6 30.49 1033 10 16 0.00 0.00
8:55 pm 20:55 Clear 32 0 21 -6 64 64 W 5 7 30.49 1033 10 16 0.00 0.00
9:15 pm 21:15 Clear 32 0 21 -6 64 64 W 5 7 30.49 1033 10 16 0.00 0.00
9:35 pm 21:35 Clear 32 0 21 -6 64 64 WNW 3 6 30.49 1033 10 16 0.00 0.00
9:55 pm 21:55 Clear 32 0 21 -6 64 64 Calm 30.50 1033 10 16 0.00 0.00
10:15 pm 22:15 Clear 32 0 21 -6 64 64 SW 3 6 30.50 1033 10 16 0.00 0.00
10:35 pm 22:35 Clear 30 -1 21 -6 69 69 SSW 6 9 30.51 1033 10 16 0.00 0.00
10:55 pm 22:55 Clear 30 -1 21 -6 69 69 SSW 3 6 30.51 1033 10 16 0.00 0.00
11:15 pm 23:15 Clear 30 -1 21 -6 69 69 Calm 30.51 1033 10 16 0.00 0.00
11:35 pm 23:35 Clear 30 -1 21 -6 69 69 Calm 30.52 1034 10 16 0.00 0.00
11:55 pm 23:55 Clear 28 -2 21 -6 74 74 Calm 30.54 1034 10 16 0.00 0.00

Powered by AerisWeather